User: anonymous   Login
Location: Unspecified
(0.0000°N, 0.0000°E)
Time: 09:59:42
(UTC+00:00)
Language:

STARLINK-6106 - Orbit

View from above orbital plane
View from above orbital plane
View from above satellite
View from above satellite

Ground track
Ground track

The orbit is defined by the following mean orbital elements,

1 57154U          26145.60071542 +.00000000 +00000-0 +15466-4 0 00004
2 57154  43.0019 189.1733 0001214 271.2611  88.8102 15.27577176    06
Epoch (UTC): 25 May 2026 14:25:01
Eccentricity: 0.0001214
inclination: 43.0019°
perigee height: 482 km
apogee height: 484 km
right ascension of ascending node: 189.1733°
argument of perigee: 271.2611°
revolutions per day: 15.27577176
mean anomaly at epoch: 88.8102°

The dashed part of the orbit path shows where the satellite is in the earth's shadow,  

DLR